Погода в Дриммелене

Нидерланды     51°41′44″N   4°46′27″E
темп.,
°C
ветер,
м/с
пор.,
м/с
влажн.,
%
обл.,
%
осадки,
мм/ч
давл.,
гПа
погр.,
м
24 июня, чт
чт2423:00+14ссв3775100 0.0 1022378
02:00+13с3679100 0.0 1022239
05:00+12ссв2583100 0.0 1022213
08:00+13ссв3478100 0.0 1021313
11:00+15ссв2372100 0.0 1021529
14:00+17сз2267100 0.0 1021817
17:00+19сз236395 0.0 10201143
20:00+18зсз336890 0.1 1019558
25 июня, пт
пт2523:00+12зсз34766 0.0 102087
02:00+9зюз2282100 0.0 101911
05:00+9ю347395 0.0 101967
08:00+13ююз4880100 0.0 1018273
11:00+18юз577489 0.0 1017853
14:00+18юз6676100 0.1 1017911
17:00+18юз457886 0.0 1017754
20:00+17зюз248496 0.3 1017482
26 июня, сб
сб2623:00+15зюз119680 0.5 101816
02:00+14ююв239677 0.5 101860
05:00+13ю2297100 0.0 101844
08:00+15ююв1291100 0.1 1019131
11:00+18юв2477100 0.0 1018666
14:00+20ююв1270100 0.0 1018545
17:00+19зюз2282100 2.1 101890
20:00+17ссв2393100 3.4 1017114
27 июня, вс
вс2723:00+16св239497 1.6 101854
02:00+16всв3693100 1.9 1017127
05:00+15всв3795100 0.1 1016140
08:00+17всв3690100 0.1 1016197
11:00+22в566510 0.0 1015668
14:00+25в5655100 0.0 10141701
17:00+21ююв5982100 0.9 1014200
20:00+19в3686100 2.1 1014103
28 июня, пн
пн2823:00+18вюв3493100 0.6 101565
02:00+18ю2294100 1.3 101435
05:00+16юз239697 0.0 101455
08:00+18зсз128983 0.0 1014157
11:00+21ююв2273100 0.0 1015713
14:00+19ююв3486100 0.3 1015321
17:00+18юв359383 1.0 1015354
20:00+17зюз5788100 1.1 1015481